Tracking 32407 objects as of 6-Dec-2025
HD Live streaming from Space Station
objects crossing your sky now

SL-8 R/B

Track SL-8 R/B now!
10-day predictions


NORAD ID: 13354
Int'l Code: 1982-069B
Perigee: 934.8 km
Apogee: 1,012.6 km
Inclination: 83.0 °
Period: 104.4 minutes
Semi major axis: 7344 km
RCS: 4.6655 m2 (large)
Launch date: July 7, 1982
Source: Commonwealth of Independent States (former USSR) (CIS)
Launch site: PLESETSK MISSILE AND SPACE COMPLEX (PKMTR)

Note: This is a ROCKET BODY
Your satellite tracking list
Your tracking list is empty




NASA's NSSDC Master Catalog

Two Line Element Set (TLE):
1 13354U 82069B   25339.15850838  .00000193  00000-0  17075-3 0  9997
2 13354  82.9599 199.9250 0052973  81.3511 279.3643 13.79249900183662
Source of the keplerian elements: AFSPC